Temperature
22 19 18 19 19 20 20 20 19 20 20 20 19 18 18 19 19 18 18 18 18 18 18 18 18 18 18 18 18 18 17 17 17 17 17 17 16 16 16 16 16 16 16 16
19 19 21 21 21 21 20 20 19 20 21 20 19 18 18 18 18 19 18 18 18 18 18 18 18 18 18 18 18 18 17 17 17 17 17 16 16 16 16 16 16 16 16 16
20 21 22 22 21 21 20 20 20 20 20 20 19 18 18 18 19 19 19 19 18 18 18 18 18 18 18 18 18 18 17 17 17 17 17 16 16 16 16 16 16 16 16 16
20 21 22 21 21 21 20 21 21 20 19 18 19 17 17 17 17 18 18 18 18 18 18 18 18 18 18 18 18 18 17 17 17 17 17 16 16 16 16 16 16 16 16 16
20 21 21 21 22 22 21 21 21 20 19 18 18 17 17 17 17 17 18 18 19 19 19 18 18 18 18 18 18 18 17 17 17 17 17 16 16 16 16 16 16 16 15 15
21 22 22 22 22 22 22 20 19 18 17 17 18 17 17 16 17 18 18 18 19 19 18 18 18 18 18 18 18 17 17 17 17 17 16 16 16 16 16 16 16 16 15 15
20 21 22 22 22 21 20 18 17 17 16 17 18 18 17 18 18 18 18 18 19 19 18 18 18 18 18 18 17 17 17 17 17 16 16 16 16 16 16 16 16 15 15 15
19 19 21 22 21 21 20 18 18 18 17 17 18 18 18 19 19 19 19 19 19 19 18 18 18 18 18 18 17 17 17 17 17 16 16 16 16 16 15 15 15 15 15 15
19 19 21 22 22 22 21 19 18 17 18 17 17 18 19 19 18 18 18 18 18 19 18 18 18 18 18 17 17 17 17 17 16 16 16 16 16 16 15 15 15 15 15 15
20 20 21 22 22 21 21 19 17 17 17 17 18 18 17 18 18 18 17 18 18 18 18 18 18 18 18 17 17 17 17 16 16 16 16 16 16 15 15 15 15 15 15 15
20 19 19 20 21 20 20 20 18 16 16 16 17 17 19 18 18 18 17 18 18 18 18 18 18 18 18 17 17 17 16 16 16 16 16 15 15 15 15 15 14 14 14 14
19 17 17 19 20 21 20 20 18 17 17 16 15 16 19 18 18 18 18 18 18 18 18 18 18 17 17 17 17 17 16 16 16 15 15 15 15 15 15 14 14 14 14 14
18 17 17 18 19 20 20 20 18 16 15 15 16 17 18 17 18 18 18 18 18 18 18 18 17 17 17 17 16 16 16 16 15 15 15 15 15 15 14 14 14 14 14 14
18 16 17 18 18 19 20 20 19 17 16 16 16 17 17 17 17 17 18 18 18 18 18 17 17 17 17 16 16 16 16 15 15 15 15 14 14 14 14 14 14 13 13 13
17 17 18 18 19 20 20 20 20 19 17 17 17 17 17 17 17 17 18 17 17 17 17 17 17 16 16 16 16 16 15 15 15 15 14 14 14 14 14 14 13 13 13 13
16 18 18 18 19 19 19 19 19 19 19 18 18 17 17 17 17 17 17 17 16 16 17 17 16 16 16 16 15 15 15 15 15 15 14 14 14 13 13 13 13 13 13 13
16 16 17 16 17 18 18 18 19 19 18 18 17 17 16 16 16 16 16 16 16 16 16 16 16 16 16 15 15 15 15 15 14 14 14 14 13 13 13 13 13 13 13 13
16 15 14 15 17 17 17 18 18 18 18 17 17 16 16 16 17 17 17 17 16 16 16 16 16 16 15 15 15 15 15 14 14 14 14 13 13 13 13 13 13 13 13 12
15 15 14 14 15 16 17 18 18 18 17 16 16 16 16 17 16 16 16 17 17 16 16 16 16 15 15 15 15 14 14 14 14 14 13 13 13 13 13 12 12 12 12 12
15 14 14 14 16 16 17 18 19 17 16 16 16 16 16 16 13 14 16 16 16 16 16 16 15 15 15 15 14 14 14 13 13 13 13 13 13 12 12 12 12 12 12 12
15 14 14 14 15 15 16 17 18 16 16 17 17 16 16 15 15 16 16 16 16 15 15 15 15 14 14 14 14 13 13 13 13 13 13 12 12 12 12 12 11 11 11 11
14 14 14 13 14 15 16 16 16 15 16 17 17 17 16 16 16 16 15 15 15 15 14 14 14 14 14 13 13 13 13 12 12 12 12 12 12 11 11 11 11 11 11 11
13 14 13 13 14 15 16 16 17 17 16 16 16 16 16 16 16 15 15 15 14 14 14 14 13 13 13 13 13 12 12 12 12 12 12 11 11 11 11 11 10 10 10 10
13 13 13 13 13 14 15 16 16 16 16 16 16 16 16 15 15 15 14 14 14 14 13 13 13 13 12 12 12 12 12 12 11 11 11 11 11 11 11 10 10 10 10 10
13 13 12 12 13 14 15 15 15 16 16 16 15 15 15 15 14 14 14 13 13 13 13 13 12 12 12 12 12 11 11 11 11 11 11 11 10 10 10 10 10 10 10 10
12 12 12 12 13 12 14 15 15 15 15 15 15 15 14 14 14 13 13 13 13 12 12 12 12 12 11 11 11 11 11 11 11 10 10 10 10 10 10 9 9 9 9 9
Wind_Speed
1 3 3 7 8 6 5 4 3 3 4 5 5 4 5 6 6 7 7 8 8 7 5 5 4 5 5 4 5 5 5 5 4 3 3 3 2 2 1 2 5 7 7 7
4 2 6 5 4 4 4 4 2 1 2 3 3 4 5 6 7 8 10 10 9 7 5 5 4 5 5 5 5 5 5 5 5 4 3 3 3 2 1 1 3 5 6 6
5 5 3 3 3 4 3 5 5 4 0 1 2 3 4 3 4 4 6 8 9 10 10 8 6 5 5 5 6 6 5 5 5 5 3 3 3 2 2 1 1 1 5 6
2 4 2 3 3 3 3 4 5 4 2 2 3 3 6 4 4 5 6 6 8 8 9 8 7 6 6 5 5 6 6 5 4 5 5 5 4 3 3 2 2 1 3 5
3 3 3 3 4 4 5 4 4 3 3 1 1 3 6 2 5 8 8 8 9 9 9 8 8 7 6 6 5 5 6 5 4 5 6 5 4 3 2 2 2 1 1 3
4 3 3 4 3 3 3 3 4 4 4 2 4 4 5 4 8 8 8 8 9 9 9 8 6 6 5 4 4 5 6 5 4 5 5 6 6 5 4 3 3 2 1 1
3 2 2 1 1 1 4 5 3 4 3 4 3 3 5 6 6 8 9 9 8 9 9 8 7 6 5 5 5 5 6 5 4 5 5 6 6 6 6 5 4 3 2 1
1 4 4 3 4 4 3 7 5 3 4 4 2 2 5 4 2 4 6 7 7 8 9 9 9 8 7 6 5 6 6 5 4 5 5 5 5 4 3 4 4 4 4 3
3 4 4 4 3 5 3 3 5 5 1 1 2 3 4 2 2 3 4 5 6 7 8 8 8 7 7 6 6 6 6 5 4 4 4 4 5 4 4 4 4 3 3 3
4 3 4 2 2 1 4 4 4 3 2 1 3 3 4 4 4 4 5 6 6 6 7 7 7 7 7 7 6 6 5 5 3 3 4 3 4 4 4 4 3 4 3 3
3 3 3 1 3 4 1 1 3 3 4 4 2 6 5 8 7 7 6 6 7 7 7 7 6 7 7 6 6 6 5 4 3 3 3 3 3 3 3 3 3 3 3 4
2 4 1 5 5 3 4 5 5 4 2 3 3 6 4 4 5 6 6 5 6 7 7 6 6 5 5 6 6 6 5 5 5 4 3 3 3 3 3 3 3 3 3 3
4 5 2 5 5 3 0 2 5 6 4 3 3 6 3 1 2 4 5 5 5 6 6 5 5 5 5 5 5 6 6 5 4 4 4 3 2 3 3 4 3 3 3 3
5 4 5 7 6 4 3 3 3 5 4 4 6 6 4 3 3 4 4 5 5 6 6 6 5 5 5 5 5 5 5 5 4 4 4 4 4 4 3 4 3 3 3 4
4 3 4 6 6 4 4 5 5 5 8 7 7 7 7 7 7 6 5 5 5 4 5 6 6 5 4 4 4 5 5 5 5 5 5 5 4 3 2 2 3 3 3 4
3 2 0 4 4 2 4 5 5 5 4 5 4 5 5 5 4 4 5 6 5 4 4 5 6 6 5 5 5 5 5 5 6 6 6 4 4 3 3 3 2 3 3 2
1 3 2 3 5 3 4 5 5 3 3 5 6 6 3 3 5 6 6 6 5 5 4 4 5 5 6 6 5 5 5 4 4 5 4 4 5 4 4 4 3 3 4 3
4 3 3 1 2 4 6 4 3 3 1 1 3 3 5 6 5 4 5 6 5 4 4 4 4 4 4 5 5 5 4 4 4 4 4 4 4 4 4 3 4 4 4 3
5 6 3 3 2 5 6 4 2 3 2 3 3 2 2 4 4 2 1 4 5 5 5 5 5 4 3 3 4 4 4 4 4 4 4 5 4 4 4 4 5 4 3 3
4 4 4 3 3 5 6 5 2 4 2 4 3 4 3 5 2 3 3 2 3 2 2 3 2 2 2 2 3 4 4 3 4 5 5 5 5 5 5 5 4 3 3 3
1 2 3 4 5 6 6 5 2 3 6 3 3 4 4 4 5 4 2 2 2 2 2 2 2 2 1 2 3 3 3 4 5 4 3 3 4 5 5 4 2 2 2 2
4 3 4 4 4 6 4 2 3 5 2 2 2 3 4 3 2 2 2 2 2 2 2 2 2 1 1 1 2 3 3 4 3 3 2 3 4 4 3 2 2 2 3 2
3 5 5 6 6 4 1 2 2 3 2 2 2 3 4 3 2 2 1 1 1 2 1 1 2 1 0 1 2 3 4 3 2 2 3 3 4 4 3 3 4 3 3 3
3 1 2 0 2 2 2 2 2 2 1 1 2 3 4 3 2 2 2 1 1 1 1 1 1 1 1 1 2 3 3 2 2 3 4 3 3 3 3 3 3 4 4 4
4 1 1 2 3 2 3 2 1 2 2 3 2 2 3 3 2 2 2 2 1 1 1 1 2 2 3 2 2 3 2 3 3 4 4 4 4 4 4 4 4 5 5 6
3 4 4 5 5 4 4 3 1 2 2 2 2 2 1 2 2 1 1 2 2 1 1 0 1 2 3 2 2 2 2 2 3 3 4 4 4 4 4 3 3 5 6 6
Wind_Direction
71 89 190 210 200 199 177 163 180 214 202 161 179 203 216 201 190 190 191 190 189 194 192 180 163 148 135 138 143 142 139 139 127 117 111 105 107 105 98 101 110 116 121 124
47 249 230 216 203 166 159 154 172 238 190 161 179 225 224 206 201 197 194 195 195 191 176 186 172 160 148 154 159 142 145 152 151 148 143 148 145 141 136 102 94 117 131 133
183 236 224 174 160 163 196 189 187 189 180 105 126 309 260 244 217 206 199 193 188 186 183 185 178 172 158 159 166 162 168 168 164 151 127 106 83 68 63 69 86 130 139 135
228 253 198 159 177 171 233 224 183 169 136 250 175 241 268 226 222 221 211 194 189 189 185 183 180 175 173 176 174 167 172 171 168 151 147 152 156 169 193 184 179 156 135 134
239 211 182 188 214 187 214 217 182 183 166 274 231 189 281 198 220 230 217 201 193 190 183 181 182 182 178 178 177 172 165 168 166 157 162 162 165 180 173 150 146 141 130 140
244 231 188 204 227 198 167 69 43 54 77 302 238 175 273 220 214 216 213 204 194 188 182 180 178 168 173 174 169 164 161 165 165 159 160 165 170 169 159 159 163 170 169 163
317 297 259 181 97 3 91 89 37 1 6 261 239 167 252 246 217 202 196 197 189 181 177 177 175 175 177 175 169 158 154 164 173 167 169 176 177 174 176 179 181 179 177 182
188 279 250 204 178 183 176 143 155 199 229 270 328 218 257 267 200 171 173 176 173 175 177 178 182 181 180 178 173 164 160 167 179 180 185 181 173 170 184 190 183 186 188 193
179 257 263 218 186 151 157 192 177 155 210 267 292 288 310 29 87 129 148 151 166 179 179 179 181 179 176 175 174 173 169 173 185 189 187 184 177 172 177 184 181 182 188 187
166 231 279 266 54 341 163 163 94 116 153 267 294 266 233 218 197 165 156 165 174 172 174 176 177 176 174 174 169 164 163 169 176 184 188 187 182 179 173 165 180 186 191 182
136 147 308 348 200 216 155 130 123 130 155 161 242 269 231 198 193 183 183 181 179 175 176 178 181 185 175 165 163 164 169 164 166 177 176 163 169 174 169 169 188 198 199 184
137 128 228 262 266 210 168 178 149 153 231 170 179 266 294 196 187 174 179 184 178 174 172 168 168 168 168 172 176 177 176 176 180 179 172 169 165 162 172 189 204 202 202 198
125 111 74 343 340 352 238 195 164 141 128 156 178 259 315 96 149 169 167 167 166 160 155 154 155 161 174 182 183 182 179 183 181 173 166 164 165 171 190 200 211 211 207 205
119 119 166 198 220 226 248 248 187 141 160 202 214 230 263 228 195 184 176 169 166 161 161 161 167 175 178 178 179 180 186 183 175 166 166 178 191 191 201 204 203 208 203 198
104 155 214 238 246 232 235 238 213 194 192 197 224 218 230 216 204 191 171 150 144 158 168 175 181 185 181 177 179 184 189 189 182 174 179 198 202 195 187 192 203 204 198 202
87 154 250 307 296 291 288 269 231 218 204 199 206 239 246 209 170 154 155 151 155 170 182 187 184 183 185 186 190 191 194 198 187 185 194 198 195 195 201 207 206 205 207 209
134 136 124 275 306 4 293 259 224 211 228 189 210 229 200 160 164 175 176 169 177 186 183 186 194 194 197 198 193 196 199 189 179 188 198 196 196 198 205 208 204 214 216 205
161 142 144 210 16 246 250 271 193 167 265 224 179 193 177 172 179 172 170 170 178 180 178 185 197 203 207 201 198 196 184 178 182 193 203 202 194 200 207 208 214 220 218 212
169 154 142 144 211 274 290 292 229 187 278 291 183 175 155 132 82 10 242 172 177 184 186 194 199 197 196 198 194 182 183 187 192 206 210 207 199 203 207 216 225 226 217 222
96 121 140 152 184 240 255 280 282 117 262 283 166 160 154 116 119 254 260 183 163 159 168 177 172 157 158 187 165 161 182 188 213 223 220 212 201 204 214 222 228 232 224 228
47 82 157 185 216 254 261 287 55 145 238 256 175 162 153 165 198 214 198 160 152 142 141 120 115 137 200 192 147 154 180 211 227 228 216 210 208 212 216 220 222 229 229 232
189 181 196 166 199 251 276 80 148 217 227 175 151 148 152 172 159 140 132 134 131 111 103 114 127 158 231 191 161 169 207 231 230 214 212 219 222 225 222 210 228 226 211 219
196 193 195 193 215 251 259 174 208 168 157 168 159 163 150 143 152 153 141 126 132 137 136 136 148 162 257 210 179 200 233 233 214 205 223 230 225 228 223 212 223 234 228 222
300 9 122 219 277 293 344 25 46 93 130 156 146 140 134 142 160 163 160 176 176 174 185 178 150 176 251 239 209 220 236 215 196 218 230 228 217 230 234 226 221 222 226 230
254 309 71 265 274 330 346 350 25 50 68 78 75 109 144 139 158 176 187 209 216 228 230 191 194 226 251 254 245 255 246 209 211 224 230 228 220 218 226 230 230 230 232 226
227 197 194 234 238 212 246 266 292 78 76 93 90 58 51 135 172 175 203 227 217 218 208 222 245 252 264 265 266 275 259 206 208 230 237 228 222 222 220 226 257 260 248 253
Height
1519 1524 1528 1526 1524 1525 1527 1532 1535 1531 1526 1529 1533 1534 1532 1531 1532 1532 1533 1534 1535 1536 1538 1539 1540 1541 1542 1543 1544 1545 1546 1546 1547 1547 1547 1547 1548 1548 1548 1549 1549 1549 1549 1550
1524 1525 1519 1518 1519 1522 1526 1532 1533 1530 1525 1529 1533 1533 1530 1529 1529 1530 1530 1532 1533 1535 1536 1538 1539 1540 1541 1542 1543 1544 1545 1546 1546 1546 1547 1547 1548 1548 1548 1549 1549 1549 1549 1550
1524 1520 1515 1517 1520 1524 1526 1529 1530 1531 1528 1527 1532 1537 1532 1529 1528 1528 1529 1529 1531 1532 1534 1535 1537 1538 1540 1541 1542 1543 1544 1545 1546 1546 1546 1547 1547 1548 1548 1548 1548 1549 1549 1550
1520 1516 1516 1518 1520 1522 1529 1521 1523 1526 1534 1540 1535 1549 1535 1529 1528 1527 1527 1527 1529 1530 1532 1534 1535 1537 1538 1539 1541 1542 1543 1544 1544 1545 1546 1546 1546 1547 1547 1548 1548 1548 1549 1549
1520 1516 1517 1519 1518 1517 1521 1517 1520 1524 1531 1539 1537 1544 1539 1529 1530 1526 1524 1525 1526 1528 1530 1531 1533 1535 1536 1538 1539 1540 1542 1542 1543 1544 1545 1545 1545 1546 1547 1547 1547 1547 1548 1548
1516 1514 1514 1515 1513 1513 1515 1520 1524 1530 1537 1548 1538 1543 1541 1531 1524 1521 1521 1522 1524 1526 1528 1530 1532 1533 1535 1536 1537 1539 1540 1541 1542 1542 1543 1544 1544 1545 1545 1546 1546 1546 1547 1547
1521 1516 1512 1512 1515 1515 1518 1533 1547 1549 1555 1550 1533 1538 1536 1520 1516 1516 1517 1519 1521 1523 1526 1528 1530 1531 1533 1534 1535 1537 1538 1539 1540 1541 1542 1542 1543 1544 1544 1544 1545 1545 1545 1546
1530 1530 1515 1511 1514 1518 1520 1529 1547 1555 1555 1548 1535 1537 1528 1515 1513 1513 1515 1517 1519 1522 1524 1526 1527 1529 1531 1532 1534 1535 1536 1537 1538 1539 1540 1541 1541 1542 1542 1543 1544 1544 1544 1544
1528 1527 1511 1508 1509 1512 1519 1526 1526 1539 1541 1548 1543 1533 1522 1515 1515 1515 1515 1517 1518 1520 1522 1524 1526 1528 1529 1531 1532 1533 1535 1536 1536 1537 1538 1539 1539 1540 1541 1541 1542 1542 1542 1543
1518 1524 1514 1509 1509 1510 1513 1519 1531 1538 1549 1554 1545 1538 1533 1521 1517 1516 1516 1516 1517 1519 1521 1522 1524 1526 1527 1529 1531 1532 1533 1534 1535 1535 1536 1537 1537 1538 1538 1539 1540 1540 1541 1541
1513 1523 1520 1514 1515 1517 1516 1520 1527 1537 1541 1551 1553 1542 1516 1515 1513 1514 1514 1514 1515 1517 1519 1521 1523 1524 1526 1527 1529 1530 1531 1532 1533 1533 1533 1534 1535 1535 1536 1536 1537 1538 1538 1539
1513 1523 1528 1519 1510 1507 1511 1516 1524 1537 1540 1542 1548 1541 1511 1511 1510 1511 1513 1514 1514 1516 1517 1519 1521 1523 1524 1525 1526 1527 1529 1530 1531 1531 1532 1532 1532 1533 1533 1534 1534 1535 1535 1536
1512 1523 1534 1530 1524 1514 1513 1512 1516 1525 1535 1541 1546 1536 1512 1511 1510 1510 1511 1512 1513 1515 1516 1518 1519 1521 1522 1523 1524 1525 1526 1527 1528 1529 1529 1530 1530 1530 1530 1531 1532 1532 1532 1533
1509 1520 1529 1533 1527 1518 1516 1513 1513 1521 1534 1536 1532 1525 1515 1513 1511 1510 1511 1511 1512 1513 1515 1516 1517 1518 1520 1521 1522 1523 1524 1525 1526 1526 1526 1527 1527 1527 1528 1528 1529 1529 1530 1530
1509 1518 1517 1516 1512 1511 1511 1510 1510 1515 1519 1525 1520 1518 1513 1510 1508 1508 1509 1510 1511 1512 1513 1514 1515 1516 1518 1519 1520 1521 1521 1522 1523 1523 1523 1524 1524 1525 1525 1526 1526 1526 1527 1527
1510 1515 1515 1515 1510 1510 1511 1509 1507 1508 1509 1512 1513 1513 1506 1505 1506 1507 1508 1509 1510 1511 1511 1512 1513 1514 1515 1516 1517 1518 1519 1519 1520 1520 1520 1521 1522 1522 1522 1523 1523 1524 1524 1524
1512 1515 1521 1524 1515 1513 1519 1510 1507 1507 1505 1507 1512 1509 1504 1505 1505 1506 1507 1507 1508 1509 1509 1510 1511 1511 1512 1513 1514 1515 1516 1517 1517 1517 1517 1518 1519 1519 1520 1520 1520 1520 1520 1520
1511 1516 1523 1525 1522 1528 1516 1503 1502 1503 1504 1503 1502 1502 1502 1502 1503 1504 1505 1505 1506 1507 1507 1508 1509 1509 1510 1511 1512 1513 1513 1514 1514 1514 1514 1515 1515 1516 1517 1517 1517 1517 1517 1517
1503 1511 1522 1528 1529 1523 1511 1502 1501 1504 1506 1502 1502 1501 1501 1501 1502 1504 1504 1504 1504 1505 1505 1506 1507 1507 1508 1508 1509 1510 1510 1511 1511 1511 1511 1512 1512 1513 1513 1513 1513 1513 1513 1513
1503 1507 1518 1525 1526 1527 1512 1500 1497 1501 1509 1501 1500 1500 1501 1501 1507 1505 1503 1503 1503 1503 1504 1504 1504 1505 1505 1506 1506 1506 1507 1507 1507 1508 1508 1509 1509 1509 1509 1509 1509 1509 1509 1509
1510 1513 1519 1522 1524 1517 1504 1498 1498 1512 1509 1500 1498 1498 1499 1500 1502 1501 1501 1501 1501 1501 1502 1502 1502 1502 1502 1503 1503 1503 1503 1503 1504 1505 1505 1505 1505 1505 1505 1505 1505 1505 1505 1505
1511 1515 1518 1521 1523 1518 1499 1498 1502 1503 1498 1498 1498 1498 1498 1499 1499 1499 1500 1499 1499 1499 1500 1500 1500 1500 1500 1500 1500 1500 1500 1500 1501 1501 1501 1501 1501 1501 1501 1501 1501 1501 1501 1501
1508 1508 1509 1510 1510 1501 1498 1497 1498 1498 1498 1497 1497 1497 1498 1498 1498 1498 1498 1498 1498 1498 1498 1498 1498 1498 1498 1497 1497 1497 1497 1497 1497 1497 1497 1497 1497 1497 1497 1497 1497 1497 1497 1497
1504 1502 1504 1505 1502 1499 1498 1497 1497 1497 1497 1497 1496 1496 1496 1496 1496 1496 1496 1496 1496 1496 1496 1496 1495 1495 1494 1494 1494 1494 1494 1494 1494 1493 1493 1493 1492 1493 1493 1493 1493 1493 1492 1492
1504 1502 1503 1504 1501 1499 1498 1498 1497 1496 1496 1496 1495 1495 1494 1494 1494 1494 1494 1494 1493 1494 1493 1493 1492 1492 1491 1490 1490 1490 1490 1489 1489 1489 1488 1488 1488 1488 1488 1488 1488 1488 1488 1488
1501 1501 1503 1502 1498 1498 1497 1496 1496 1495 1494 1494 1494 1493 1493 1492 1492 1492 1491 1491 1491 1491 1490 1490 1489 1488 1488 1487 1486 1486 1486 1486 1485 1484 1484 1483 1483 1483 1483 1483 1483 1483 1483 1483